{"data":{"norad_id":87672,"intl_designator":"","name":"UNKNOWN","alt_names":[],"object_type":"UNKNOWN","status":"UNKNOWN","operator":null,"country":null,"launch_date":null,"launch_site_code":null,"launch_vehicle":null,"mission":null,"orbit_class":"UNKNOWN","rcs_meters":null,"size_class":null,"mass_kg":null,"dimensions":null,"purposes":[],"wikipedia_slug":null,"has_3d_model":false,"image_url":null,"decayed_at":null,"tle_current":{"epoch":"2026-05-24T01:17:08.174976Z","epoch_age_seconds":146936,"freshness":"FRESH","line1":"1 87672U          26144.05356684  .00001422  00000+0  57683-3 0  9994","line2":"2 87672  70.8562  15.7639 0055763  23.8169 336.5521 14.28582287647634","mean_motion":14.28582287,"eccentricity":0.0055763,"inclination_deg":70.8562,"raan_deg":15.7639,"arg_perigee_deg":23.8169,"mean_anomaly_deg":336.5521,"bstar":0.00057683,"rev_number":64763,"period_min":100.7992338351,"perigee_km":756.46580503015,"apogee_km":836.48136705204,"semimajor_km":7174.6105860411,"source":"CELESTRAK","updated_at":"2026-05-25T13:38:11.675846Z"}}}